Time,TemperatureF,DewpointF,PressureIn,WindDirection,WindDirectionDegrees,WindSpeedMPH,WindSpeedGustMPH,Humidity,HourlyPrecipIn,Conditions,Clouds,dailyrainin,SoftwareType,DateUTC
2013-02-13 00:00:00,26.5,20.9,29.91,SW,214,4.0,4.0,79,0.00,,,0.00,Wunderground v.1.15,2013-02-13 05:00:00,
2013-02-13 00:04:00,26.5,20.9,29.92,NNW,335,4.0,21.0,79,0.00,,,0.00,Wunderground v.1.15,2013-02-13 05:04:00,
2013-02-13 00:06:00,26.5,20.9,29.92,WNW,294,4.0,21.0,79,0.00,,,0.00,Wunderground v.1.15,2013-02-13 05:06:00,
2013-02-13 00:07:00,26.5,20.9,29.92,West,262,4.0,21.0,79,0.00,,,0.00,Wunderground v.1.15,2013-02-13 05:07:00,
2013-02-13 00:12:00,26.5,20.9,29.91,NW,307,4.0,21.0,79,0.00,,,0.00,Wunderground v.1.15,2013-02-13 05:12:00,
2013-02-13 00:17:00,26.5,20.9,29.92,WNW,284,3.0,21.0,79,0.00,,,0.00,Wunderground v.1.15,2013-02-13 05:17:00,
2013-02-13 00:22:00,26.5,20.9,29.92,NW,321,3.0,21.0,79,0.00,,,0.00,Wunderground v.1.15,2013-02-13 05:22:00,
2013-02-13 00:27:00,26.5,21.2,29.92,NW,314,4.0,21.0,80,0.00,,,0.00,Wunderground v.1.15,2013-02-13 05:27:00,
2013-02-13 00:32:00,26.5,21.2,29.92,West,281,3.0,21.0,80,0.00,,,0.00,Wunderground v.1.15,2013-02-13 05:32:00,
2013-02-13 00:37:00,26.4,21.1,29.92,WNW,291,3.0,21.0,80,0.00,,,0.00,Wunderground v.1.15,2013-02-13 05:37:00,
2013-02-13 00:43:00,26.4,21.1,29.92,WSW,245,4.0,21.0,80,0.00,,,0.00,Wunderground v.1.15,2013-02-13 05:43:00,
2013-02-13 00:48:00,26.4,21.1,29.92,WNW,301,5.0,21.0,80,0.00,,,0.00,Wunderground v.1.15,2013-02-13 05:48:00,
2013-02-13 00:53:00,26.4,21.4,29.92,WNW,302,4.0,21.0,81,0.00,,,0.00,Wunderground v.1.15,2013-02-13 05:53:00,
2013-02-13 00:58:00,26.3,21.0,29.92,West,274,3.0,21.0,80,0.00,,,0.00,Wunderground v.1.15,2013-02-13 05:58:00,
2013-02-13 01:03:00,26.3,21.0,29.92,SSW,195,4.0,21.0,80,0.00,,,0.00,Wunderground v.1.15,2013-02-13 06:03:00,
2013-02-13 01:09:00,26.3,21.0,29.92,NW,321,4.0,21.0,80,0.00,,,0.00,Wunderground v.1.15,2013-02-13 06:09:00,
2013-02-13 01:14:00,26.3,21.0,29.92,SW,226,3.0,21.0,80,0.00,,,0.00,Wunderground v.1.15,2013-02-13 06:14:00,
2013-02-13 01:19:00,26.3,21.0,29.92,West,268,2.0,21.0,80,0.00,,,0.00,Wunderground v.1.15,2013-02-13 06:19:00,
2013-02-13 01:24:00,26.3,21.3,29.92,WSW,240,2.0,21.0,81,0.00,,,0.00,Wunderground v.1.15,2013-02-13 06:24:00,
2013-02-13 01:29:00,26.3,21.0,29.92,West,271,4.0,21.0,80,0.00,,,0.00,Wunderground v.1.15,2013-02-13 06:29:00,
2013-02-13 01:35:00,26.3,21.0,29.92,WNW,285,4.0,21.0,80,0.00,,,0.00,Wunderground v.1.15,2013-02-13 06:35:00,
2013-02-13 01:40:00,26.3,21.0,29.92,West,264,4.0,4.0,80,0.00,,,0.00,Wunderground v.1.15,2013-02-13 06:40:00,
2013-02-13 01:45:00,26.3,21.0,29.92,NNW,332,4.0,21.0,80,0.00,,,0.00,Wunderground v.1.15,2013-02-13 06:45:00,
2013-02-13 01:50:00,26.3,21.0,29.92,WNW,302,4.0,21.0,80,0.00,,,0.00,Wunderground v.1.15,2013-02-13 06:50:00,
2013-02-13 01:55:00,26.3,21.0,29.93,SW,221,4.0,21.0,80,0.00,,,0.00,Wunderground v.1.15,2013-02-13 06:55:00,
2013-02-13 02:00:00,26.3,21.0,29.92,West,262,3.0,3.0,80,0.00,,,0.00,Wunderground v.1.15,2013-02-13 07:00:00,
2013-02-13 02:05:00,26.3,21.0,29.92,NNW,336,3.0,21.0,80,0.00,,,0.00,Wunderground v.1.15,2013-02-13 07:05:00,
2013-02-13 02:10:00,26.3,20.7,29.93,WNW,283,4.0,4.0,79,0.00,,,0.00,Wunderground v.1.15,2013-02-13 07:10:00,
2013-02-13 02:15:00,26.3,20.7,29.93,NW,319,4.0,21.0,79,0.00,,,0.00,Wunderground v.1.15,2013-02-13 07:15:00,
2013-02-13 02:20:00,26.3,21.0,29.93,West,278,5.0,21.0,80,0.00,,,0.00,Wunderground v.1.15,2013-02-13 07:20:00,
2013-02-13 02:25:00,26.3,21.0,29.93,WNW,285,5.0,21.0,80,0.00,,,0.00,Wunderground v.1.15,2013-02-13 07:25:00,
2013-02-13 02:30:00,26.2,20.9,29.93,WNW,286,4.0,21.0,80,0.00,,,0.00,Wunderground v.1.15,2013-02-13 07:30:00,
2013-02-13 02:36:00,26.3,21.0,29.93,WNW,302,3.0,21.0,80,0.00,,,0.00,Wunderground v.1.15,2013-02-13 07:36:00,
2013-02-13 02:41:00,26.2,20.9,29.93,WNW,284,3.0,21.0,80,0.00,,,0.00,Wunderground v.1.15,2013-02-13 07:41:00,
2013-02-13 02:46:00,26.2,20.9,29.93,WSW,255,3.0,21.0,80,0.00,,,0.00,Wunderground v.1.15,2013-02-13 07:46:00,
2013-02-13 02:51:00,26.2,20.6,29.93,SW,234,3.0,21.0,79,0.00,,,0.00,Wunderground v.1.15,2013-02-13 07:51:00,
2013-02-13 02:56:00,26.2,20.6,29.93,West,271,3.0,21.0,79,0.00,,,0.00,Wunderground v.1.15,2013-02-13 07:56:00,
2013-02-13 03:02:00,26.2,20.6,29.93,West,273,3.0,21.0,79,0.00,,,0.00,Wunderground v.1.15,2013-02-13 08:02:00,
2013-02-13 03:07:00,26.2,20.6,29.93,SSW,205,2.0,21.0,79,0.00,,,0.00,Wunderground v.1.15,2013-02-13 08:07:00,
2013-02-13 03:12:00,26.2,20.6,29.93,WSW,239,1.0,21.0,79,0.00,,,0.00,Wunderground v.1.15,2013-02-13 08:12:00,
2013-02-13 03:17:00,26.2,20.6,29.93,West,267,2.0,21.0,79,0.00,,,0.00,Wunderground v.1.15,2013-02-13 08:17:00,
2013-02-13 03:22:00,26.2,20.6,29.93,West,271,2.0,21.0,79,0.00,,,0.00,Wunderground v.1.15,2013-02-13 08:22:00,
2013-02-13 03:27:00,26.2,20.6,29.92,WSW,257,2.0,21.0,79,0.00,,,0.00,Wunderground v.1.15,2013-02-13 08:27:00,
2013-02-13 03:33:00,26.1,20.8,29.92,WSW,252,1.0,21.0,80,0.00,,,0.00,Wunderground v.1.15,2013-02-13 08:33:00,
2013-02-13 03:38:00,26.1,20.8,29.93,West,280,1.0,21.0,80,0.00,,,0.00,Wunderground v.1.15,2013-02-13 08:38:00,
2013-02-13 03:43:00,26.1,20.8,29.92,WNW,301,1.0,21.0,80,0.00,,,0.00,Wunderground v.1.15,2013-02-13 08:43:00,
2013-02-13 03:48:00,26.1,20.8,29.92,SW,228,1.0,21.0,80,0.00,,,0.00,Wunderground v.1.15,2013-02-13 08:48:00,
2013-02-13 03:53:00,26.1,20.8,29.92,SW,221,1.0,21.0,80,0.00,,,0.00,Wunderground v.1.15,2013-02-13 08:53:00,
2013-02-13 03:58:00,26.0,20.7,29.92,WSW,255,1.0,21.0,80,0.00,,,0.00,Wunderground v.1.15,2013-02-13 08:58:00,
2013-02-13 04:03:00,26.1,20.8,29.91,SSW,210,1.0,21.0,80,0.00,,,0.00,Wunderground v.1.15,2013-02-13 09:03:00,
2013-02-13 04:08:00,26.0,20.7,29.91,WSW,245,1.0,21.0,80,0.00,,,0.00,Wunderground v.1.15,2013-02-13 09:08:00,
2013-02-13 04:13:00,26.0,20.7,29.91,SSW,210,1.0,21.0,80,0.00,,,0.00,Wunderground v.1.15,2013-02-13 09:13:00,
2013-02-13 04:18:00,26.1,20.5,29.91,West,274,2.0,21.0,79,0.00,,,0.00,Wunderground v.1.15,2013-02-13 09:18:00,
2013-02-13 04:24:00,26.1,20.5,29.92,WSW,250,1.0,21.0,79,0.00,,,0.00,Wunderground v.1.15,2013-02-13 09:24:00,
2013-02-13 04:29:00,26.1,20.8,29.91,SW,228,1.0,21.0,80,0.00,,,0.00,Wunderground v.1.15,2013-02-13 09:29:00,
2013-02-13 04:34:00,26.1,20.8,29.91,WSW,252,1.0,21.0,80,0.00,,,0.00,Wunderground v.1.15,2013-02-13 09:34:00,
2013-02-13 04:39:00,26.0,20.7,29.91,SW,236,1.0,21.0,80,0.00,,,0.00,Wunderground v.1.15,2013-02-13 09:39:00,
2013-02-13 04:44:00,26.0,20.4,29.91,WNW,290,1.0,21.0,79,0.00,,,0.00,Wunderground v.1.15,2013-02-13 09:44:00,
2013-02-13 04:50:00,26.0,20.7,29.91,WSW,252,1.0,1.0,80,0.00,,,0.00,Wunderground v.1.15,2013-02-13 09:50:00,
2013-02-13 04:55:00,26.0,20.7,29.91,SSW,198,1.0,21.0,80,0.00,,,0.00,Wunderground v.1.15,2013-02-13 09:55:00,
2013-02-13 05:00:00,26.0,21.0,29.91,SSW,203,1.0,21.0,81,0.00,,,0.00,Wunderground v.1.15,2013-02-13 10:00:00,
2013-02-13 05:05:00,26.0,20.7,29.91,WSW,251,1.0,21.0,80,0.00,,,0.00,Wunderground v.1.15,2013-02-13 10:05:00,
2013-02-13 05:10:00,26.0,20.7,29.92,WNW,283,1.0,21.0,80,0.00,,,0.00,Wunderground v.1.15,2013-02-13 10:10:00,
2013-02-13 05:16:00,25.9,20.9,29.91,West,271,1.0,21.0,81,0.00,,,0.00,Wunderground v.1.15,2013-02-13 10:16:00,
2013-02-13 05:21:00,25.9,20.6,29.91,WNW,284,1.0,21.0,80,0.00,,,0.00,Wunderground v.1.15,2013-02-13 10:21:00,
2013-02-13 05:26:00,25.9,20.9,29.91,South,177,1.0,21.0,81,0.00,,,0.00,Wunderground v.1.15,2013-02-13 10:26:00,
2013-02-13 05:31:00,25.9,20.6,29.91,WNW,282,2.0,21.0,80,0.00,,,0.00,Wunderground v.1.15,2013-02-13 10:31:00,
2013-02-13 05:36:00,25.9,20.6,29.91,WSW,248,2.0,21.0,80,0.00,,,0.00,Wunderground v.1.15,2013-02-13 10:36:00,
2013-02-13 05:42:00,25.8,20.5,29.91,WSW,241,2.0,21.0,80,0.00,,,0.00,Wunderground v.1.15,2013-02-13 10:42:00,
2013-02-13 05:47:00,25.8,20.5,29.91,NW,308,2.0,21.0,80,0.00,,,0.00,Wunderground v.1.15,2013-02-13 10:47:00,
2013-02-13 05:52:00,25.8,20.2,29.91,SSW,208,3.0,21.0,79,0.00,,,0.00,Wunderground v.1.15,2013-02-13 10:52:00,
2013-02-13 05:57:00,25.7,20.1,29.91,WSW,243,3.0,21.0,79,0.00,,,0.00,Wunderground v.1.15,2013-02-13 10:57:00,
2013-02-13 06:02:00,25.7,20.4,29.91,SW,232,2.0,11.0,80,0.00,,,0.00,Wunderground v.1.15,2013-02-13 11:02:00,
2013-02-13 06:08:00,25.7,20.4,29.91,WNW,283,2.0,11.0,80,0.00,,,0.00,Wunderground v.1.15,2013-02-13 11:08:00,
2013-02-13 06:13:00,25.7,20.4,29.91,NW,304,2.0,11.0,80,0.00,,,0.00,Wunderground v.1.15,2013-02-13 11:13:00,